[[{"header":{"parameterUnit":"m.s-1","parameterCategory":1,"la1":30.2991,"la2":30.254,"lo1":-89.0895,"lo2":-89.0444,"dy":0.0017,"dx":0.0017,"nx":28,"ny":28,"refTime":"2024-04-09T21:00:00:Z","depth":0,"parameterNumber":2,"parameterNumberName":"U-component_of_WINDS"},"data":[0,0,0,0,0,0,0,0,0,0,0,0,0,0,0,0,0,0,0,0,0,0,0,0,0,0,0,0,0,0,0,0,0,0,0,0,0,0,0,0,0,0,0,0,0,0,0,0,0,0,0,0,0,0,0,0,0,0,-8.6195,-8.6197,0,-8.635,-8.6352,-8.6354,-8.6313,-8.631,-8.6307,-8.6304,-8.6459,-8.6465,-8.6472,0,0,0,0,0,0,0,0,0,0,0,0,0,-8.5861,-8.5868,-8.6195,-8.6197,-8.6199,-8.635,-8.6352,-8.6354,-8.6314,-8.631,-8.6307,-8.6303,-8.6456,-8.6465,-8.6473,0,0,0,0,0,0,0,0,0,0,0,0,0,-8.601,-8.587,-8.6195,-8.6197,-8.6199,-8.635,-8.6352,-8.6355,-8.6315,-8.631,-8.6306,-8.6301,-8.6454,-8.6464,-8.6474,-8.663,0,0,-8.6506,-8.651,0,0,0,0,0,0,0,0,-8.6002,-8.6023,-8.6195,-8.6197,-8.62,-8.6308,-8.6291,-8.6447,-8.6316,-8.6271,-8.6304,-8.6299,-8.6412,-8.6425,-8.6464,-8.6637,-8.6644,-8.6507,-8.6513,-8.6518,-8.6521,0,0,0,0,0,0,0,-8.5992,-8.6016,-8.6256,-8.6197,-8.62,-8.619,-8.6206,-8.632,-8.6365,-8.6274,-8.6272,-8.6291,-8.6412,-8.6455,-8.6468,-8.6646,-8.6507,-8.6516,-8.6522,-8.6526,-8.6955,-8.696,0,0,0,0,0,0,-8.598,-8.6007,-8.6251,-8.6261,-8.6088,-8.6199,-8.6217,-8.6278,-8.6364,-8.6372,-8.6295,-8.6288,-8.6439,-8.6456,-8.6473,-8.666,-8.6518,-8.6527,-8.6533,-8.695,-8.6956,-8.6962,0,0,0,0,0,0,-8.5973,-8.6002,-8.6245,-8.6134,-8.6164,-8.621,-8.6278,-8.6283,-8.6325,-8.6379,-8.6386,-8.633,-8.6436,-8.6458,-8.6592,-8.6665,-8.6532,-8.6541,-8.6944,-8.6952,-8.6959,-8.7036,0,0,0,0,0,0,-8.5964,-8.6,-8.606,-8.6135,-8.617,-8.6362,-8.6283,-8.629,-8.6344,-8.6337,-8.6414,-8.6422,-8.6434,-8.6576,-8.6602,-8.6677,-8.655,-8.6937,-8.6947,-8.6957,-8.7027,-8.7045,-8.7061,0,0,0,0,0,-8.5952,-8.6074,-8.6063,-8.6093,-8.6246,-8.6366,-8.6386,-8.6398,-8.635,-8.641,-8.6445,-8.642,-8.6654,-8.659,-8.6619,-8.6698,-8.6933,-8.6945,-8.6956,-8.7019,-8.7042,-8.7061,0,0,0,0,0,0,-8.6004,-8.6084,-8.6072,-8.6223,-8.6289,-8.6359,-8.6435,-8.6422,-8.65,-8.6491,-8.6502,-8.652,-8.6656,-8.6691,-8.6619,-8.6854,-8.6786,-8.6804,-8.6825,-8.6846,-8.6863,-8.6849,-8.6558,0,0,0,0,0,-8.6034,-8.6126,-8.619,-8.6317,-8.6351,-8.6388,-8.6441,-8.6445,-8.6512,-8.6539,-8.6584,-8.6649,-8.6737,-8.6794,-8.6879,-8.7034,-8.7049,-8.7103,-8.712,-8.7133,-8.7147,-8.7231,-8.7255,-8.7,-8.7,-8.6999,0,0,-8.6094,-8.615,-8.6206,-8.6329,-8.638,-8.6474,-8.6411,-8.6513,-8.6582,-8.6554,-8.6682,-8.6718,-8.6792,-8.6936,-8.7002,-8.697,-8.7222,-8.7148,-8.7159,-8.7165,-8.7245,-8.7269,-8.729,-8.7007,-8.7006,-8.7005,0,0,-8.6251,-8.6304,-8.6415,-8.6469,-8.6548,-8.6572,-8.6599,-8.6673,-8.6696,-8.6826,-8.6807,-8.689,-8.7042,-8.7095,-8.7142,-8.7324,-8.7303,-8.7352,-8.7438,-8.752,-8.754,-8.7558,-8.762,-8.7642,-8.7366,-8.7367,-8.7367,0,-8.6316,-8.6457,-8.6473,-8.6577,-8.6631,-8.6614,-8.6726,-8.6777,-8.6879,-8.6916,-8.6879,-8.7071,-8.7119,-8.7275,-8.732,-8.736,-8.7389,-8.734,-8.7536,-8.7554,-8.7571,-8.763,-8.7654,-8.7372,-8.7371,-8.7371,-8.737,0,-8.6532,-8.6631,-8.6711,-8.6811,-8.6875,-8.6983,-8.7014,-8.7077,-8.7078,-8.7106,-8.7238,-8.7297,-8.7393,-8.7431,-8.7432,-8.7588,-8.7566,-8.7533,-8.7464,-8.76,-8.7656,-8.7679,-8.7379,-8.7377,-8.7376,-8.7374,0,0,-8.672,-8.6832,-8.6861,-8.6906,-8.6994,-8.707,-8.7178,-8.7274,-8.7326,-8.7399,-8.7487,-8.7619,-8.759,-8.7643,-8.765,-8.7723,-8.7861,-8.7681,-8.7683,-8.7709,-8.8034,-8.8055,-8.8081,-8.785,-8.7855,-8.7858,-8.8027,0,-8.6883,-8.7072,-8.7091,-8.726,-8.7351,-8.7338,-8.7432,-8.7495,-8.7526,-8.7607,-8.7641,-8.7732,-8.7689,-8.7721,-8.7792,-8.7829,-8.7925,-8.7818,-8.7929,-8.7933,-8.7906,-8.8111,-8.8132,-8.8288,-8.8049,-8.8053,-8.8056,0,-8.7096,-8.7176,-8.7355,-8.7431,-8.747,-8.7554,-8.7643,-8.7722,-8.7794,-8.7812,-8.7874,-8.7872,-8.7982,-8.7914,-8.8065,-8.7991,-8.8039,-8.8064,-8.8071,-8.8077,-8.7999,-8.8119,-8.8339,-8.8361,-8.8091,-8.8088,-8.8085,0,-8.7211,-8.7365,-8.7491,-8.7531,-8.7625,-8.7684,-8.7725,-8.7793,-8.785,-8.7929,-8.7966,-8.8056,-8.8105,-8.8175,-8.8197,-8.8146,-8.8347,-8.8281,-8.8361,-8.8361,-8.8399,-8.8395,-8.8626,-8.8438,-8.8438,-8.8438,-8.8437,0,-8.7388,-8.7496,-8.7544,-8.7621,-8.7743,-8.7766,-8.7885,-8.7923,-8.7985,-8.8069,-8.8065,-8.8143,-8.8172,-8.8255,-8.8274,-8.8395,-8.8418,-8.8433,-8.8436,-8.8431,-8.8428,-8.8458,-8.8446,-8.8444,-8.8443,-8.8441,-8.844,0,-8.7534,-8.7572,-8.7708,-8.7787,-8.7809,-8.7895,-8.7962,-8.8036,-8.8068,-8.8174,-8.82,-8.8249,-8.8347,-8.8379,-8.8497,-8.851,-8.865,-8.8645,-8.8625,-8.8624,-8.8702,-8.8692,-8.8955,-8.899,-8.8784,-8.8786,-8.8788,0,-8.7642,-8.7725,-8.7814,-8.7871,-8.7915,-8.8007,-8.8065,-8.8092,-8.8153,-8.8244,-8.8307,-8.8405,-8.8483,-8.8641,-8.8686,-8.8777,-8.8772,-8.8858,-8.8785,-8.8777,-8.8768,-8.8761,-8.8769,-8.8869,-8.8872,-8.8873,-8.8875,0,-8.7828,-8.7843,-8.7928,-8.8021,-8.8092,-8.8165,-8.8236,-8.8283,-8.832,-8.8389,-8.849,-8.8552,-8.8674,-8.877,-8.8864,-8.8905,-8.8895,-8.8899,-8.8921,-8.8914,-8.8897,-8.8904,-8.8657,-8.8891,-8.8889,-8.8888,-8.8887,-8.8887,-8.7955,-8.8029,-8.8103,-8.8199,-8.8256,-8.8324,-8.8397,-8.844,-8.8525,-8.8627,-8.8638,-8.8747,-8.8819,-8.8943,-8.899,-8.9075,-8.905,-8.9084,-8.9091,-8.9098,-8.9103,-8.8889,-8.9092,-8.9092,-8.9092,-8.9091,-8.9091,0,-8.8138,-8.8186,-8.8274,-8.8375,-8.845,-8.844,-8.8519,-8.8581,-8.8677,-8.8747,-8.8826,-8.8942,-8.9037,-8.9091,-8.9186,-8.9243,-8.9241,-8.9266,-8.926,-8.9269,-8.9121,-8.909,-8.9266,-8.9266,-8.9266,-8.9266,-8.9266,-8.9266,-8.8241,-8.8364,-8.8389,-8.8541,-8.8589,-8.8696,-8.8742,-8.8804,-8.8859,-8.899,-8.9069,-8.9105,-8.9169,-8.9268,-8.9354,-8.9368,-8.9401,-8.9428,-8.9439,-8.9298,-8.928,-8.9262,-8.9233,-8.9436,-8.9437,-8.9579,-8.9581,-8.9582]},{"header":{"parameterUnit":"m.s-1","parameterCategory":1,"la1":30.2991,"la2":30.254,"lo1":-89.0895,"lo2":-89.0444,"dy":0.0017,"dx":0.0017,"nx":28,"ny":28,"refTime":"2024-04-09T21:00:00:Z","depth":0,"parameterNumber":3,"parameterNumberName":"V-component_of_WINDS"},"data":[0,0,0,0,0,0,0,0,0,0,0,0,0,0,0,0,0,0,0,0,0,0,0,0,0,0,0,0,0,0,0,0,0,0,0,0,0,0,0,0,0,0,0,0,0,0,0,0,0,0,0,0,0,0,0,0,0,0,4.1067,4.1067,0,4.112,4.1121,4.1121,4.1118,4.1117,4.1116,4.1115,4.1166,4.1168,4.117,0,0,0,0,0,0,0,0,0,0,0,0,0,4.096,4.0962,4.1067,4.1067,4.1068,4.112,4.1121,4.1121,4.1118,4.1117,4.1116,4.1115,4.1166,4.1168,4.117,0,0,0,0,0,0,0,0,0,0,0,0,0,4.1009,4.0963,4.1067,4.1073,4.1074,4.112,4.1121,4.1122,4.1118,4.1117,4.1116,4.1115,4.1165,4.1168,4.1171,4.1213,0,0,4.118,4.1182,0,0,0,0,0,0,0,0,4.1006,4.1013,4.1071,4.1072,4.1074,4.1111,4.1102,4.1152,4.1118,4.1101,4.1115,4.1114,4.1149,4.1153,4.1165,4.1216,4.1218,4.1181,4.1182,4.1184,4.1185,0,0,0,0,0,0,0,4.1003,4.1011,4.1088,4.1072,4.1073,4.1072,4.1078,4.1111,4.113,4.1102,4.1102,4.1109,4.1149,4.1162,4.1167,4.1219,4.1181,4.1183,4.1185,4.1186,4.1309,4.131,0,0,0,0,0,0,4.0999,4.1008,4.1086,4.1089,4.1037,4.1075,4.1081,4.11,4.113,4.1134,4.111,4.1109,4.1158,4.1163,4.1168,4.1221,4.1184,4.1187,4.1189,4.1307,4.1309,4.1311,0,0,0,0,0,0,4.0996,4.1006,4.1084,4.1049,4.1059,4.1078,4.1099,4.1102,4.1115,4.1136,4.1139,4.112,4.1157,4.1164,4.1203,4.1223,4.1188,4.1191,4.1306,4.1308,4.131,4.1327,0,0,0,0,0,0,4.0993,4.1005,4.1021,4.1049,4.106,4.1118,4.11,4.1104,4.1121,4.112,4.1146,4.1149,4.1157,4.1198,4.1206,4.1227,4.1193,4.1304,4.1307,4.1309,4.1324,4.1329,4.1333,0,0,0,0,0,4.0989,4.1022,4.1022,4.1031,4.1082,4.1119,4.1125,4.1134,4.1123,4.1139,4.1153,4.1149,4.122,4.1202,4.1211,4.1233,4.1303,4.1306,4.1309,4.1322,4.1328,4.1333,0,0,0,0,0,0,4.0994,4.1026,4.1026,4.1069,4.1092,4.1118,4.1139,4.1139,4.1164,4.1162,4.1171,4.1177,4.1216,4.1228,4.1208,4.1277,4.126,4.1265,4.1267,4.1273,4.1277,4.1273,4.1196,0,0,0,0,0,4.1,4.1029,4.1055,4.1091,4.1102,4.1119,4.1136,4.1141,4.1164,4.1173,4.1189,4.1211,4.1239,4.1256,4.1283,4.1327,4.1333,4.1346,4.1351,4.1354,4.1358,4.1384,4.139,4.1321,4.1321,4.1321,0,0,4.1013,4.1034,4.1051,4.1092,4.111,4.114,4.1127,4.1158,4.118,4.1177,4.1216,4.1229,4.1254,4.1296,4.1316,4.1308,4.1379,4.1358,4.1361,4.1363,4.1388,4.1394,4.14,4.1323,4.1323,4.1322,0,0,4.1051,4.107,4.1102,4.1122,4.115,4.1162,4.117,4.1198,4.1207,4.1246,4.1246,4.1272,4.1319,4.1337,4.1353,4.1402,4.1399,4.141,4.1432,4.1457,4.1463,4.1468,4.1486,4.1492,4.1414,4.1414,4.1414,0,4.1062,4.1107,4.1119,4.1151,4.1169,4.1172,4.1205,4.1222,4.1257,4.127,4.1261,4.1322,4.1339,4.1386,4.1399,4.1411,4.1421,4.1406,4.1461,4.1466,4.1471,4.1488,4.1495,4.1416,4.1415,4.1415,4.1415,0,4.1121,4.1152,4.1175,4.1212,4.1233,4.1265,4.1281,4.1301,4.1306,4.1318,4.1359,4.138,4.1412,4.1424,4.1427,4.1472,4.1467,4.146,4.1443,4.1479,4.1495,4.1502,4.1417,4.1417,4.1416,4.1416,0,0,4.116,4.1206,4.1214,4.1231,4.1265,4.1289,4.1322,4.1355,4.1372,4.1397,4.1425,4.1467,4.1462,4.1479,4.1485,4.1507,4.1546,4.1498,4.1499,4.1506,4.1599,4.1604,4.1611,4.1546,4.1547,4.1548,4.1597,0,4.1202,4.1262,4.1275,4.1327,4.1357,4.1361,4.139,4.1413,4.1427,4.1454,4.1468,4.1498,4.1488,4.1499,4.1522,4.1537,4.1565,4.1534,4.1571,4.1572,4.1564,4.162,4.1624,4.1669,4.1603,4.1604,4.1605,0,4.1258,4.1287,4.1343,4.1375,4.1388,4.1414,4.1446,4.1472,4.1499,4.1508,4.1529,4.1534,4.1569,4.1552,4.16,4.1579,4.1595,4.1605,4.1607,4.161,4.159,4.1624,4.1684,4.169,4.1615,4.1614,4.1614,0,4.1282,4.1335,4.1376,4.1391,4.1429,4.1447,4.1464,4.149,4.151,4.1538,4.1551,4.1583,4.16,4.1624,4.1637,4.1623,4.1685,4.1668,4.1692,4.1692,4.1704,4.1703,4.1767,4.1715,4.1715,4.1715,4.1715,0,4.1327,4.1361,4.1387,4.1412,4.1451,4.1466,4.1503,4.1519,4.1543,4.1571,4.1577,4.1603,4.1618,4.1647,4.1657,4.1696,4.1704,4.1711,4.1713,4.1711,4.171,4.1721,4.1718,4.1717,4.1716,4.1716,4.1716,0,4.1359,4.1379,4.1423,4.1457,4.1467,4.1494,4.1522,4.1547,4.1562,4.1597,4.1606,4.1629,4.1663,4.1679,4.172,4.1727,4.1772,4.1772,4.1763,4.1764,4.1787,4.1785,4.186,4.1871,4.1813,4.1813,4.1814,0,4.1387,4.1413,4.1451,4.1471,4.1489,4.1521,4.1542,4.1558,4.158,4.1615,4.1635,4.167,4.1699,4.1753,4.1773,4.1805,4.1806,4.183,4.181,4.1807,4.1806,4.1804,4.1808,4.1833,4.1834,4.1834,4.1834,0,4.1433,4.1442,4.1473,4.1508,4.1534,4.1562,4.1589,4.1605,4.1626,4.165,4.1686,4.1709,4.1753,4.1787,4.1822,4.1838,4.184,4.1841,4.1848,4.1845,4.1839,4.1843,4.1773,4.1839,4.1838,4.1838,4.1838,4.1837,4.1464,4.1488,4.152,4.1555,4.1578,4.1604,4.163,4.1649,4.168,4.1718,4.1726,4.1764,4.1793,4.1839,4.1857,4.1888,4.1882,4.1892,4.1895,4.1897,4.1899,4.1835,4.1894,4.1894,4.1894,4.1893,4.1893,0,4.1511,4.1532,4.1564,4.1604,4.1632,4.1634,4.1665,4.1688,4.1722,4.175,4.1779,4.1821,4.1855,4.1879,4.1914,4.1934,4.1936,4.1942,4.1941,4.1945,4.1902,4.1892,4.194,4.194,4.194,4.194,4.194,4.194,4.1538,4.1581,4.1594,4.1649,4.1669,4.1709,4.1726,4.1751,4.1773,4.1821,4.185,4.1866,4.1893,4.193,4.1962,4.1968,4.198,4.1987,4.1993,4.1952,4.1947,4.1943,4.1934,4.199,4.199,4.2034,4.2034,4.2035]}]]